Flag Weather past 2 weeks in Medan, North Sumatra, Indonesia

Now
84 °F

Partly sunny.


Feels Like: 96 °F
Forecast: 75 / 85 °F
Wind: 9 mph from North

Location: Medan / Polonia

Current Time: Nov 26, 2014 at 2:58:23 PM

Latest Report: Nov 26, 2014 at 2:00 PM


Visibility: 4 mi

Pressure: 29.74 "Hg

Humidity: 84%

Dew point: 79 °F

Location of MedanLocation

Historic Weather in Medan — Graph

°F

Medan temperature yesterday

Maximum temperature yesterday: 90 °F (at 11:30 AM)
Minimum temperature yesterday: 77 °F (at 3:00 AM)
Average temperature yesterday: 82 °F

Past Weeks' High & Low Weather Summary

 TemperatureHumidityPressure
High93 °F (Nov 21, 11:30 AM)100% (Nov 12, 1:30 AM)29.92 "Hg (Nov 12, 1:30 AM)
Low73 °F (Nov 13, 11:00 PM)56% (Nov 21, 11:30 AM)29.68 "Hg (Nov 16, 3:30 PM)
Average81 °F88%29.80 "Hg
* Reported Nov 11 1:00 PM — Nov 26 1:30 PM, Medan, Weather by CustomWeather, © 2014

Note: Actual official high and low records may vary slightly from our data, if they occured in-between our weather recording intervals... More about our weather records

Advertising

Medan weather history for previous 24 hours

 ConditionsComfort  
Time TempWeatherWind HumidityBarometerVisibility
1:30 PM
Nov 26
84 °FPartly sunny.8 mph84%29.77 "Hg4 mi
1:00 PM84 °FPartly sunny.7 mph84%29.77 "Hg3 mi
12:30 PM84 °FLight rain. Partly sunny.No wind84%29.80 "Hg3 mi
12:00 PM82 °FLight rain. Partly sunny.No wind89%29.80 "Hg3 mi
11:30 AM82 °FPartly sunny.No wind89%29.80 "Hg3 mi
11:00 AM82 °FPartly sunny.2 mph89%29.80 "Hg2 mi
10:30 AM84 °FScattered clouds.3 mph84%29.83 "Hg3 mi
10:00 AM82 °FScattered clouds.No wind89%29.80 "Hg3 mi
9:30 AM82 °FScattered clouds.2 mph89%29.80 "Hg3 mi
9:00 AM81 °FScattered clouds.3 mph94%29.80 "Hg3 mi
8:30 AM81 °FScattered clouds.3 mph94%29.80 "Hg3 mi
8:00 AM81 °FScattered clouds.6 mph94%29.77 "Hg3 mi
7:30 AM79 °FScattered clouds.6 mph94%29.77 "Hg3 mi
7:00 AM79 °FScattered clouds.6 mph94%29.77 "Hg3 mi
6:30 AM79 °FScattered clouds.3 mph94%29.74 "Hg2 mi
6:00 AM79 °FPassing clouds.6 mph94%29.74 "Hg3 mi
5:30 AM79 °FPassing clouds.6 mph94%29.74 "Hg2 mi
4:00 AM79 °FPassing clouds.5 mph100%29.71 "Hg2 mi
2:30 AM79 °FPassing clouds.6 mph100%29.74 "Hg2 mi
2:00 AM81 °FPassing clouds.5 mph94%29.74 "Hg2 mi
1:30 AM79 °FPassing clouds.3 mph100%29.74 "Hg2 mi
1:00 AM81 °FPassing clouds.5 mph94%29.77 "Hg2 mi
12:30 AM79 °FPassing clouds.5 mph100%29.77 "Hg2 mi
12:00 AM81 °FPassing clouds.3 mph94%29.80 "Hg2 mi
11:30 PM
Nov 25
79 °FPassing clouds.3 mph100%29.80 "Hg2 mi
11:00 PM81 °FPassing clouds.3 mph100%29.80 "Hg2 mi
10:30 PM81 °FPassing clouds.3 mph100%29.80 "Hg2 mi
10:00 PM81 °FPassing clouds.3 mph100%29.77 "Hg3 mi
9:30 PM81 °FPassing clouds.3 mph100%29.77 "Hg3 mi
9:00 PM81 °FPassing clouds.3 mph100%29.77 "Hg3 mi
8:30 PM81 °FPassing clouds.3 mph100%29.74 "Hg4 mi
8:00 PM81 °FPassing clouds.No wind100%29.74 "Hg4 mi
7:30 PM81 °FPassing clouds.3 mph94%29.71 "Hg4 mi
7:00 PM82 °FPassing clouds.3 mph89%29.71 "Hg4 mi
6:30 PM82 °FPassing clouds.5 mph89%29.71 "Hg4 mi
6:00 PM82 °FScattered clouds.6 mph89%29.71 "Hg4 mi
5:00 PM84 °FScattered clouds.8 mph79%29.68 "Hg4 mi
4:30 PM84 °FScattered clouds.7 mph79%29.68 "Hg4 mi
4:00 PM86 °FScattered clouds.8 mph75%29.68 "Hg4 mi
3:30 PM88 °FScattered clouds.7 mph70%29.68 "Hg4 mi
3:00 PM88 °FScattered clouds.9 mph70%29.71 "Hg4 mi
2:30 PM86 °FScattered clouds.7 mph75%29.71 "Hg4 mi
2:00 PM88 °FScattered clouds.8 mph70%29.74 "Hg4 mi
Weather by CustomWeather, © 2014

See weather overviewHow to use our weather pages